SB KEPS @ AMSAT $ORB11314.O Orbital Elements 11314.OSCAR
HR AMSAT ORBITAL ELEMENTS FOR OSCAR SATELLITES FROM WA5QGD FORT WORTH,TX November 10, 2011 Send Subscribe/unsubscribe to KEPS at http://www.amsat.org/mailman/listinfo/keps BID: ORB11314.O TO ALL RADIO AMATEURS BT
Satellite: AO-07 Catalog number: 07530 Epoch time: 11314.59996988 Element set: 226 Inclination: 101.3973 deg RA of node: 315.3818 deg Eccentricity: 0.0012061 Arg of perigee: 353.2129 deg Mean anomaly: 006.8775 deg Mean motion: 12.53585222 rev/day Decay rate: -2.7e-07 rev/day^2 Epoch rev: 69253 Checksum: 307
Satellite: FO-29 Catalog number: 24278 Epoch time: 11313.96041704 Element set: 0715 Inclination: 098.5689 deg RA of node: 078.6041 deg Eccentricity: 0.0349750 Arg of perigee: 239.5346 deg Mean anomaly: 117.0817 deg Mean motion: 13.52968529 rev/day Decay rate: -2.5e-07 rev/day^2 Epoch rev: 75217 Checksum: 334
Satellite: SO-33 Catalog number: 25509 Epoch time: 11313.81028079 Element set: 0097 Inclination: 031.4296 deg RA of node: 140.6292 deg Eccentricity: 0.0352831 Arg of perigee: 075.2164 deg Mean anomaly: 288.7272 deg Mean motion: 14.28506831 rev/day Decay rate: 1.251e-05 rev/day^2 Epoch rev: 68111 Checksum: 292
Satellite: RS-22 Catalog number: 27939 Epoch time: 11314.72643660 Element set: 798 Inclination: 097.8268 deg RA of node: 161.5920 deg Eccentricity: 0.0012555 Arg of perigee: 238.9533 deg Mean anomaly: 121.0440 deg Mean motion: 14.63737406 rev/day Decay rate: 1.278e-05 rev/day^2 Epoch rev: 43377 Checksum: 321
Satellite: VO-52 Catalog number: 28650 Epoch time: 11313.78118464 Element set: 0946 Inclination: 097.6264 deg RA of node: 350.2802 deg Eccentricity: 0.0027813 Arg of perigee: 046.0192 deg Mean anomaly: 314.3320 deg Mean motion: 14.82359105 rev/day Decay rate: 2.097e-05 rev/day^2 Epoch rev: 35231 Checksum: 287
Satellite: SO-67 Catalog number: 35870 Epoch time: 11314.72730932 Element set: 394 Inclination: 097.2643 deg RA of node: 353.1168 deg Eccentricity: 0.0001323 Arg of perigee: 174.8415 deg Mean anomaly: 323.8939 deg Mean motion: 15.21737451 rev/day Decay rate: 7.617e-05 rev/day^2 Epoch rev: 11921 Checksum: 309
Satellite: HO-68 Catalog number: 36122 Epoch time: 11314.78170848 Element set: 911 Inclination: 100.3969 deg RA of node: 013.2513 deg Eccentricity: 0.0007168 Arg of perigee: 251.2654 deg Mean anomaly: 108.7672 deg Mean motion: 13.16289829 rev/day Decay rate: -4.4e-07 rev/day^2 Epoch rev: 9152 Checksum: 299
/EX SB KEPS @ AMSAT $ORB11314.D Orbital Elements 11314.MICROS
HR AMSAT ORBITAL ELEMENTS FOR THE MICROSATS FROM WA5QGD FORT WORTH,TX November 10, 2011 Send Subscribe/unsubscribe to KEPS at http://www.amsat.org/mailman/listinfo/keps BID: ORB11314.D TO ALL RADIO AMATEURS BT
Satellite: UO-11 Catalog number: 14781 Epoch time: 11314.71102449 Element set: 702 Inclination: 097.9874 deg RA of node: 010.8151 deg Eccentricity: 0.0009885 Arg of perigee: 029.1092 deg Mean anomaly: 331.0667 deg Mean motion: 14.80138830 rev/day Decay rate: 1.190e-05 rev/day^2 Epoch rev: 48746 Checksum: 294
Satellite: AO-16 Catalog number: 20439 Epoch time: 11313.85231498 Element set: 0332 Inclination: 098.4023 deg RA of node: 258.7242 deg Eccentricity: 0.0011871 Arg of perigee: 091.1432 deg Mean anomaly: 269.1111 deg Mean motion: 14.31967964 rev/day Decay rate: 3.39e-06 rev/day^2 Epoch rev: 13846 Checksum: 294
Satellite: LO-19 Catalog number: 20442 Epoch time: 11313.90908713 Element set: 243 Inclination: 098.3670 deg RA of node: 262.5813 deg Eccentricity: 0.0012829 Arg of perigee: 084.6418 deg Mean anomaly: 275.6232 deg Mean motion: 14.32190966 rev/day Decay rate: 3.84e-06 rev/day^2 Epoch rev: 13865 Checksum: 306
Satellite: AO-27 Catalog number: 22825 Epoch time: 11313.89284505 Element set: 0971 Inclination: 098.5474 deg RA of node: 255.4480 deg Eccentricity: 0.0008183 Arg of perigee: 201.0287 deg Mean anomaly: 159.0557 deg Mean motion: 14.29387994 rev/day Decay rate: 2.31e-06 rev/day^2 Epoch rev: 94500 Checksum: 322
Satellite: IO-26 Catalog number: 22826 Epoch time: 11313.86543364 Element set: 0713 Inclination: 098.5419 deg RA of node: 255.8511 deg Eccentricity: 0.0008382 Arg of perigee: 197.5330 deg Mean anomaly: 162.5561 deg Mean motion: 14.29654668 rev/day Decay rate: 3.04e-06 rev/day^2 Epoch rev: 94512 Checksum: 314
Satellite: GO-32 Catalog number: 25397 Epoch time: 11313.65116435 Element set: 0627 Inclination: 098.3394 deg RA of node: 298.5314 deg Eccentricity: 0.0001190 Arg of perigee: 166.0041 deg Mean anomaly: 194.1156 deg Mean motion: 14.23233054 rev/day Decay rate: 1.61e-06 rev/day^2 Epoch rev: 69265 Checksum: 283
Satellite: NO-44 Catalog number: 26931 Epoch time: 11313.55088445 Element set: 0894 Inclination: 067.0545 deg RA of node: 328.9561 deg Eccentricity: 0.0004884 Arg of perigee: 264.6054 deg Mean anomaly: 095.4501 deg Mean motion: 14.29709916 rev/day Decay rate: 5.04e-06 rev/day^2 Epoch rev: 52770 Checksum: 322
Satellite: SO-50 Catalog number: 27607 Epoch time: 11313.81123432 Element set: 0611 Inclination: 064.5580 deg RA of node: 245.1037 deg Eccentricity: 0.0082878 Arg of perigee: 291.3098 deg Mean anomaly: 067.9185 deg Mean motion: 14.71969041 rev/day Decay rate: 2.237e-05 rev/day^2 Epoch rev: 47752 Checksum: 309
Satellite: CO-55 Catalog number: 27844 Epoch time: 11313.59528328 Element set: 239 Inclination: 098.7071 deg RA of node: 320.1947 deg Eccentricity: 0.0009962 Arg of perigee: 135.4082 deg Mean anomaly: 224.7902 deg Mean motion: 14.20885424 rev/day Decay rate: 4.54e-06 rev/day^2 Epoch rev: 43356 Checksum: 315
Satellite: CO-57 Catalog number: 27848 Epoch time: 11313.56158839 Element set: 0186 Inclination: 098.7134 deg RA of node: 319.4018 deg Eccentricity: 0.0010049 Arg of perigee: 140.5061 deg Mean anomaly: 219.6881 deg Mean motion: 14.20655772 rev/day Decay rate: 3.98e-06 rev/day^2 Epoch rev: 43350 Checksum: 318
Satellite: AO-51 Catalog number: 28375 Epoch time: 11313.95036273 Element set: 0117 Inclination: 098.1166 deg RA of node: 284.8771 deg Eccentricity: 0.0084402 Arg of perigee: 348.9239 deg Mean anomaly: 011.0133 deg Mean motion: 14.40823423 rev/day Decay rate: 4.98e-06 rev/day^2 Epoch rev: 38705 Checksum: 302
Satellite: CP3 Catalog number: 31129 Epoch time: 11313.70353869 Element set: 0016 Inclination: 097.8940 deg RA of node: 329.4603 deg Eccentricity: 0.0103014 Arg of perigee: 088.7607 deg Mean anomaly: 272.5398 deg Mean motion: 14.52667886 rev/day Decay rate: 1.586e-05 rev/day^2 Epoch rev: 24196 Checksum: 324
Satellite: CO-65 Catalog number: 32785 Epoch time: 11313.90451367 Element set: 0148 Inclination: 097.8343 deg RA of node: 014.8898 deg Eccentricity: 0.0015983 Arg of perigee: 062.9087 deg Mean anomaly: 297.3739 deg Mean motion: 14.82331921 rev/day Decay rate: 2.674e-05 rev/day^2 Epoch rev: 19112 Checksum: 339
Satellite: PRISM Catalog number: 33493 Epoch time: 11314.88123807 Element set: 135 Inclination: 098.1431 deg RA of node: 085.8481 deg Eccentricity: 0.0018695 Arg of perigee: 287.3273 deg Mean anomaly: 072.5943 deg Mean motion: 14.82400666 rev/day Decay rate: 5.781e-05 rev/day^2 Epoch rev: 15124 Checksum: 308
Satellite: SOHLA-1 Catalog number: 33496 Epoch time: 11314.90692727 Element set: 566 Inclination: 098.0917 deg RA of node: 063.3537 deg Eccentricity: 0.0007182 Arg of perigee: 024.6143 deg Mean anomaly: 335.5403 deg Mean motion: 14.69740553 rev/day Decay rate: 1.142e-05 rev/day^2 Epoch rev: 15003 Checksum: 287
Satellite: TISAT-1 Catalog number: 36799 Epoch time: 11314.84365342 Element set: 405 Inclination: 098.0883 deg RA of node: 024.4560 deg Eccentricity: 0.0015567 Arg of perigee: 159.4640 deg Mean anomaly: 200.7222 deg Mean motion: 14.81020621 rev/day Decay rate: 3.800e-05 rev/day^2 Epoch rev: 7201 Checksum: 269
Satellite: STUDSAT Catalog number: 36801 Epoch time: 11313.94313819 Element set: 0311 Inclination: 098.0934 deg RA of node: 023.5481 deg Eccentricity: 0.0013731 Arg of perigee: 151.8656 deg Mean anomaly: 208.3303 deg Mean motion: 14.81788622 rev/day Decay rate: 9.668e-05 rev/day^2 Epoch rev: 07187 Checksum: 299
Satellite: OOREOS Catalog number: 37224 Epoch time: 11283.12196780 Element set: 0302 Inclination: 071.9656 deg RA of node: 145.3580 deg Eccentricity: 0.0018647 Arg of perigee: 057.9354 deg Mean anomaly: 302.3616 deg Mean motion: 14.77183931 rev/day Decay rate: 9.55e-06 rev/day^2 Epoch rev: 04784 Checksum: 307
Satellite: FO-69 Catalog number: 37227 Epoch time: 11314.38646024 Element set: 0023 Inclination: 071.9708 deg RA of node: 076.8763 deg Eccentricity: 0.0015586 Arg of perigee: 004.7578 deg Mean anomaly: 355.3800 deg Mean motion: 14.76751597 rev/day Decay rate: 1.523e-05 rev/day^2 Epoch rev: 00364 Checksum: 318
Satellite: NANOSALD Catalog number: 37361 Epoch time: 11242.25215765 Element set: 0351 Inclination: 071.9735 deg RA of node: 221.4469 deg Eccentricity: 0.0025730 Arg of perigee: 245.3422 deg Mean anomaly: 114.7284 deg Mean motion: 15.22200108 rev/day Decay rate: 1.80112e-03 rev/day^2 Epoch rev: 03331 Checksum: 248
Satellite: FO-70 Catalog number: 37380 Epoch time: 11314.35569910 Element set: 0021 Inclination: 071.9725 deg RA of node: 077.2302 deg Eccentricity: 0.0017266 Arg of perigee: 001.0504 deg Mean anomaly: 359.0709 deg Mean motion: 14.76511729 rev/day Decay rate: 1.370e-05 rev/day^2 Epoch rev: 00353 Checksum: 270
/EX SB KEPS @ AMSAT $ORB11314.W Orbital Elements 11314.WEATHER
HR AMSAT ORBITAL ELEMENTS FOR WEATHER SATELLITES FROM WA5QGD FORT WORTH,TX November 10, 2011 Send Subscribe/unsubscribe to KEPS at http://www.amsat.org/mailman/listinfo/keps BID: ORB11314.W TO ALL RADIO AMATEURS BT
Satellite: NOAA-10 Catalog number: 16969 Epoch time: 11313.93443314 Element set: 0704 Inclination: 098.6083 deg RA of node: 341.6481 deg Eccentricity: 0.0012409 Arg of perigee: 155.6906 deg Mean anomaly: 204.4863 deg Mean motion: 14.27494825 rev/day Decay rate: 1.23e-06 rev/day^2 Epoch rev: 30844 Checksum: 300
